Time,TemperatureF,DewpointF,PressureIn,WindDirection,WindDirectionDegrees,WindSpeedMPH,WindSpeedGustMPH,Humidity,HourlyPrecipIn,Conditions,Clouds,dailyrainin,SoftwareType,DateUTC
2014-01-02 00:03:00,-4.2,-10.6,30.54,North,351,0.0,2.0,73,0.00,,OVC110,0.00,VWS V14.01,2014-01-02 06:03:00,
2014-01-02 00:08:00,-4.3,-11.0,30.54,NE,35,0.0,3.0,72,0.00,,OVC110,0.00,VWS V14.01,2014-01-02 06:08:00,
2014-01-02 00:13:00,-4.4,-11.1,30.53,NW,307,1.0,3.0,72,0.00,,OVC110,0.00,VWS V14.01,2014-01-02 06:13:00,
2014-01-02 00:18:00,-4.4,-10.8,30.53,NW,317,0.0,4.0,73,0.00,,OVC110,0.00,VWS V14.01,2014-01-02 06:18:00,
2014-01-02 00:23:00,-4.5,-10.9,30.53,NE,34,2.0,6.0,73,0.00,,OVC110,0.00,VWS V14.01,2014-01-02 06:23:00,
2014-01-02 00:28:00,-4.6,-11.3,30.53,North,354,0.0,2.0,72,0.00,,OVC110,0.00,VWS V14.01,2014-01-02 06:28:00,
2014-01-02 00:33:00,-4.7,-11.4,30.53,NNW,345,0.0,2.0,72,0.00,,OVC110,0.00,VWS V14.01,2014-01-02 06:33:00,
2014-01-02 00:38:00,-4.9,-11.6,30.53,NNE,15,0.0,4.0,72,0.00,,OVC110,0.00,VWS V14.01,2014-01-02 06:38:00,
2014-01-02 00:43:00,-5.1,-11.8,30.53,NNE,33,0.0,4.0,72,0.00,,OVC110,0.00,VWS V14.01,2014-01-02 06:43:00,
2014-01-02 00:48:00,-5.2,-11.9,30.53,NNE,13,0.0,4.0,72,0.00,,BKN095,0.00,VWS V14.01,2014-01-02 06:48:00,
2014-01-02 00:53:00,-5.4,-12.1,30.53,North,8,0.0,4.0,72,0.00,,BKN095,0.00,VWS V14.01,2014-01-02 06:53:00,
2014-01-02 00:58:00,-5.5,-12.2,30.53,NNE,20,0.0,0.0,72,0.00,,BKN095,0.00,VWS V14.01,2014-01-02 06:58:00,
2014-01-02 01:03:00,-5.7,-12.4,30.53,NE,36,2.0,2.0,72,0.00,,BKN095,0.00,VWS V14.01,2014-01-02 07:03:00,
2014-01-02 01:07:00,-5.9,-12.6,30.53,NE,37,0.0,3.0,72,0.00,,BKN095,0.00,VWS V14.01,2014-01-02 07:07:00,
2014-01-02 01:12:00,-6.2,-12.9,30.53,North,357,0.0,3.0,72,0.00,,BKN095,0.00,VWS V14.01,2014-01-02 07:12:00,
2014-01-02 01:17:00,-6.4,-13.1,30.53,NNW,335,1.0,3.0,72,0.00,,OVC110,0.00,VWS V14.01,2014-01-02 07:17:00,
2014-01-02 01:22:00,-6.7,-13.3,30.53,NNE,27,0.0,3.0,72,0.00,,BKN095,0.00,VWS V14.01,2014-01-02 07:22:00,
2014-01-02 01:27:00,-7.0,-13.6,30.53,North,8,0.0,3.0,72,0.00,,BKN095,0.00,VWS V14.01,2014-01-02 07:27:00,
2014-01-02 01:32:00,-7.3,-13.9,30.53,NNE,30,0.0,3.0,72,0.00,,SCT110,0.00,VWS V14.01,2014-01-02 07:32:00,
2014-01-02 01:37:00,-7.6,-14.2,30.53,North,1,1.0,3.0,72,0.00,,SCT110,0.00,VWS V14.01,2014-01-02 07:37:00,
2014-01-02 01:42:00,-7.8,-14.4,30.53,NNE,22,0.0,3.0,72,0.00,,SCT110,0.00,VWS V14.01,2014-01-02 07:42:00,
2014-01-02 01:47:00,-8.1,-14.4,30.53,NNE,13,0.0,3.0,73,0.00,,SCT110,0.00,VWS V14.01,2014-01-02 07:47:00,
2014-01-02 01:52:00,-8.4,-14.7,30.53,NNE,15,0.0,3.0,73,0.00,,BKN110,0.00,VWS V14.01,2014-01-02 07:52:00,
2014-01-02 01:57:00,-8.7,-15.0,30.53,North,1,1.0,3.0,73,0.00,,SCT110,0.00,VWS V14.01,2014-01-02 07:57:00,
2014-01-02 02:02:00,-8.9,-15.2,30.53,NNE,23,1.0,2.0,73,0.00,,BKN110,0.00,VWS V14.01,2014-01-02 08:02:00,
2014-01-02 02:07:00,-9.1,-15.4,30.53,North,5,0.0,2.0,73,0.00,,BKN110,0.00,VWS V14.01,2014-01-02 08:07:00,
2014-01-02 02:12:00,-9.3,-15.3,30.53,NNE,33,0.0,3.0,74,0.00,,BKN110,0.00,VWS V14.01,2014-01-02 08:12:00,
2014-01-02 02:17:00,-9.5,-15.5,30.53,North,5,0.0,3.0,74,0.00,,BKN110,0.00,VWS V14.01,2014-01-02 08:17:00,
2014-01-02 02:22:00,-9.7,-15.7,30.53,NNE,33,0.0,3.0,74,0.00,,BKN110,0.00,VWS V14.01,2014-01-02 08:22:00,
2014-01-02 02:27:00,-9.9,-15.6,30.53,NNW,338,0.0,1.0,75,0.00,,BKN110,0.00,VWS V14.01,2014-01-02 08:27:00,
2014-01-02 02:32:00,-10.0,-15.7,30.53,NNE,27,1.0,4.0,75,0.00,,BKN120,0.00,VWS V14.01,2014-01-02 08:32:00,
2014-01-02 02:37:00,-10.1,-15.8,30.53,North,8,0.0,4.0,75,0.00,,BKN120,0.00,VWS V14.01,2014-01-02 08:37:00,
2014-01-02 02:42:00,-10.2,-15.7,30.53,NNE,20,0.0,4.0,76,0.00,,BKN120,0.00,VWS V14.01,2014-01-02 08:42:00,
2014-01-02 02:47:00,-10.2,-15.7,30.53,NNE,23,1.0,4.0,76,0.00,,SCT110,0.00,VWS V14.01,2014-01-02 08:47:00,
2014-01-02 02:52:00,-10.4,-15.9,30.53,NNW,343,0.0,4.0,76,0.00,,BKN120,0.00,VWS V14.01,2014-01-02 08:52:00,
2014-01-02 02:57:00,-10.6,-16.1,30.53,NW,321,0.0,0.0,76,0.00,,BKN120,0.00,VWS V14.01,2014-01-02 08:57:00,
2014-01-02 03:02:00,-10.8,-16.2,30.53,North,8,0.0,1.0,76,0.00,,BKN120,0.00,VWS V14.01,2014-01-02 09:02:00,
2014-01-02 03:07:00,-11.0,-16.5,30.53,NNE,29,0.0,2.0,76,0.00,,BKN120,0.00,VWS V14.01,2014-01-02 09:07:00,
2014-01-02 03:12:00,-11.1,-16.3,30.53,North,4,0.0,2.0,77,0.00,,BKN120,0.00,VWS V14.01,2014-01-02 09:12:00,
2014-01-02 03:17:00,-11.3,-16.5,30.53,NNW,335,0.0,2.0,77,0.00,,BKN120,0.00,VWS V14.01,2014-01-02 09:17:00,
2014-01-02 03:22:00,-11.4,-16.6,30.53,NW,321,0.0,2.0,77,0.00,,BKN120,0.00,VWS V14.01,2014-01-02 09:22:00,
2014-01-02 03:27:00,-11.5,-16.4,30.53,North,351,0.0,2.0,78,0.00,,BKN120,0.00,VWS V14.01,2014-01-02 09:27:00,
2014-01-02 03:32:00,-11.5,-16.4,30.53,NNW,342,1.0,2.0,78,0.00,,SCT120,0.00,VWS V14.01,2014-01-02 09:32:00,
2014-01-02 03:37:00,-11.7,-16.6,30.53,NNE,12,0.0,4.0,78,0.00,,SCT120,0.00,VWS V14.01,2014-01-02 09:37:00,
2014-01-02 03:42:00,-11.7,-16.6,30.53,NW,317,0.0,4.0,78,0.00,,SCT120,0.00,VWS V14.01,2014-01-02 09:42:00,
2014-01-02 03:47:00,-11.9,-16.8,30.53,NNW,340,0.0,4.0,78,0.00,,SCT110,0.00,VWS V14.01,2014-01-02 09:47:00,
2014-01-02 03:52:00,-11.9,-16.8,30.53,North,359,0.0,4.0,78,0.00,,SCT110,0.00,VWS V14.01,2014-01-02 09:52:00,
2014-01-02 03:57:00,-11.9,-16.6,30.53,North,355,1.0,1.0,79,0.00,,SCT110,0.00,VWS V14.01,2014-01-02 09:57:00,
2014-01-02 04:02:00,-12.0,-16.7,30.53,North,5,0.0,3.0,79,0.00,,SCT110,0.00,VWS V14.01,2014-01-02 10:02:00,
2014-01-02 04:07:00,-12.1,-16.8,30.53,NW,323,0.0,3.0,79,0.00,,SCT110,0.00,VWS V14.01,2014-01-02 10:07:00,
2014-01-02 04:12:00,-12.2,-16.9,30.53,NNW,332,0.0,3.0,79,0.00,,SCT110,0.00,VWS V14.01,2014-01-02 10:12:00,
2014-01-02 04:17:00,-12.3,-17.0,30.53,North,9,1.0,3.0,79,0.00,,SCT110,0.00,VWS V14.01,2014-01-02 10:17:00,
2014-01-02 04:22:00,-12.3,-17.0,30.53,North,357,0.0,4.0,79,0.00,,SCT110,0.00,VWS V14.01,2014-01-02 10:22:00,
2014-01-02 04:27:00,-12.3,-17.0,30.53,North,6,1.0,2.0,79,0.00,,SCT110,0.00,VWS V14.01,2014-01-02 10:27:00,
2014-01-02 04:32:00,-12.4,-17.0,30.53,NNW,340,0.0,2.0,79,0.00,,BKN120,0.00,VWS V14.01,2014-01-02 10:32:00,
2014-01-02 04:37:00,-12.4,-17.0,30.53,NNE,23,0.0,2.0,79,0.00,,BKN120,0.00,VWS V14.01,2014-01-02 10:37:00,
2014-01-02 04:42:00,-12.5,-17.1,30.53,NNW,332,0.0,2.0,79,0.00,,BKN120,0.00,VWS V14.01,2014-01-02 10:42:00,
2014-01-02 04:47:00,-12.6,-17.0,30.52,NNW,339,0.0,4.0,80,0.00,,SCT120,0.00,VWS V14.01,2014-01-02 10:47:00,
2014-01-02 04:52:00,-12.7,-17.1,30.53,North,359,0.0,4.0,80,0.00,,BKN110,0.00,VWS V14.01,2014-01-02 10:52:00,
2014-01-02 04:57:00,-12.7,-17.1,30.53,North,1,0.0,1.0,80,0.00,,BKN110,0.00,VWS V14.01,2014-01-02 10:57:00,
2014-01-02 05:02:00,-12.8,-17.2,30.53,North,5,0.0,1.0,80,0.00,,BKN110,0.00,VWS V14.01,2014-01-02 11:02:00,
2014-01-02 05:07:00,-12.9,-17.3,30.53,NNE,18,0.0,1.0,80,0.00,,BKN110,0.00,VWS V14.01,2014-01-02 11:07:00,
2014-01-02 05:12:00,-13.1,-17.5,30.53,North,350,0.0,1.0,80,0.00,,BKN110,0.00,VWS V14.01,2014-01-02 11:12:00,
2014-01-02 05:17:00,-13.3,-17.7,30.53,North,350,0.0,1.0,80,0.00,,BKN110,0.00,VWS V14.01,2014-01-02 11:17:00,
2014-01-02 05:22:00,-13.4,-17.8,30.53,North,352,0.0,1.0,80,0.00,,BKN110,0.00,VWS V14.01,2014-01-02 11:22:00,
2014-01-02 05:27:00,-13.6,-18.0,30.53,North,354,0.0,1.0,80,0.00,,BKN110,0.00,VWS V14.01,2014-01-02 11:27:00,
2014-01-02 05:32:00,-13.7,-17.8,30.53,North,349,0.0,1.0,81,0.00,,SCT120,0.00,VWS V14.01,2014-01-02 11:32:00,
2014-01-02 05:37:00,-13.7,-17.8,30.53,NNW,347,0.0,1.0,81,0.00,,SCT120,0.00,VWS V14.01,2014-01-02 11:37:00,
2014-01-02 05:42:00,-13.7,-17.8,30.54,NW,321,0.0,3.0,81,0.00,,SCT120,0.00,VWS V14.01,2014-01-02 11:42:00,
2014-01-02 05:47:00,-13.8,-17.9,30.54,North,357,0.0,3.0,81,0.00,,BKN120,0.00,VWS V14.01,2014-01-02 11:47:00,
2014-01-02 05:52:00,-13.8,-17.9,30.54,North,8,0.0,3.0,81,0.00,,SCT120,0.00,VWS V14.01,2014-01-02 11:52:00,
2014-01-02 05:57:00,-13.8,-18.2,30.54,NNE,18,0.0,0.0,80,0.00,,SCT120,0.00,VWS V14.01,2014-01-02 11:57:00,
2014-01-02 06:02:00,-13.9,-18.3,30.54,NNW,335,0.0,1.0,80,0.00,,SCT120,0.00,VWS V14.01,2014-01-02 12:02:00,
2014-01-02 06:07:00,-14.0,-18.4,30.54,West,280,0.0,1.0,80,0.00,,SCT120,0.00,VWS V14.01,2014-01-02 12:07:00,
2014-01-02 06:12:00,-14.0,-18.4,30.54,North,352,0.0,3.0,80,0.00,,SCT120,0.00,VWS V14.01,2014-01-02 12:12:00,
2014-01-02 06:17:00,-14.0,-18.4,30.55,NW,321,0.0,3.0,80,0.00,,SCT120,0.00,VWS V14.01,2014-01-02 12:17:00,
2014-01-02 06:22:00,-14.0,-18.4,30.55,North,352,0.0,3.0,80,0.00,,SCT120,0.00,VWS V14.01,2014-01-02 12:22:00,
2014-01-02 06:27:00,-14.1,-18.5,30.55,NW,319,0.0,0.0,80,0.00,,SCT120,0.00,VWS V14.01,2014-01-02 12:27:00,
2014-01-02 06:32:00,-14.1,-18.5,30.55,North,357,0.0,1.0,80,0.00,,SCT120,0.00,VWS V14.01,2014-01-02 12:32:00,
2014-01-02 06:37:00,-14.1,-18.5,30.55,NNE,27,0.0,1.0,80,0.00,,SCT120,0.00,VWS V14.01,2014-01-02 12:37:00,
2014-01-02 06:42:00,-14.3,-18.7,30.55,NNE,16,0.0,1.0,80,0.00,,SCT120,0.00,VWS V14.01,2014-01-02 12:42:00,
2014-01-02 06:47:00,-14.5,-18.9,30.55,NNW,335,0.0,1.0,80,0.00,,SCT120,0.00,VWS V14.01,2014-01-02 12:47:00,
2014-01-02 06:52:00,-14.6,-19.0,30.55,NE,36,0.0,1.0,80,0.00,,SCT120,0.00,VWS V14.01,2014-01-02 12:52:00,
2014-01-02 06:57:00,-14.6,-19.0,30.56,North,8,0.0,2.0,80,0.00,,BKN120,0.00,VWS V14.01,2014-01-02 12:57:00,
2014-01-02 07:02:00,-14.5,-18.6,30.56,NW,305,0.0,2.0,81,0.00,,BKN120,0.00,VWS V14.01,2014-01-02 13:02:00,
2014-01-02 07:07:00,-14.6,-19.0,30.56,North,5,1.0,2.0,80,0.00,,SCT120,0.00,VWS V14.01,2014-01-02 13:07:00,
2014-01-02 07:12:00,-14.7,-19.1,30.56,NNW,333,0.0,2.0,80,0.00,,SCT120,0.00,VWS V14.01,2014-01-02 13:12:00,
2014-01-02 07:17:00,-14.8,-19.2,30.56,NW,321,0.0,2.0,80,0.00,,BKN120,0.00,VWS V14.01,2014-01-02 13:17:00,
2014-01-02 07:22:00,-15.0,-19.4,30.56,NW,322,0.0,2.0,80,0.00,,SCT120,0.00,VWS V14.01,2014-01-02 13:22:00,
2014-01-02 07:27:00,-15.2,-19.5,30.56,WNW,293,0.0,2.0,80,0.00,,SCT120,0.00,VWS V14.01,2014-01-02 13:27:00,
2014-01-02 07:32:00,-15.3,-19.6,30.57,WNW,295,0.0,0.0,80,0.00,,BKN120,0.00,VWS V14.01,2014-01-02 13:32:00,
2014-01-02 07:37:00,-15.4,-19.7,30.56,WNW,295,0.0,0.0,80,0.00,,SCT120,0.00,VWS V14.01,2014-01-02 13:37:00,
2014-01-02 07:42:00,-15.6,-19.7,30.57,WNW,294,0.0,0.0,81,0.00,,SCT120,0.00,VWS V14.01,2014-01-02 13:42:00,
2014-01-02 07:47:00,-15.7,-19.8,30.57,WNW,294,0.0,0.0,81,0.00,,SCT120,0.00,VWS V14.01,2014-01-02 13:47:00,
2014-01-02 07:52:00,-15.7,-19.8,30.57,WNW,294,0.0,0.0,81,0.00,,SCT120,0.00,VWS V14.01,2014-01-02 13:52:00,
2014-01-02 07:57:00,-15.8,-19.9,30.57,WNW,295,0.0,0.0,81,0.00,,BKN120,0.00,VWS V14.01,2014-01-02 13:57:00,
2014-01-02 08:02:00,-15.8,-19.9,30.57,WNW,294,0.0,0.0,81,0.00,,SCT120,0.00,VWS V14.01,2014-01-02 14:02:00,
2014-01-02 08:07:00,-15.8,-19.9,30.57,WNW,294,0.0,0.0,81,0.00,,SCT120,0.00,VWS V14.01,2014-01-02 14:07:00,
2014-01-02 08:12:00,-15.7,-19.6,30.57,WNW,293,0.0,0.0,82,0.00,,SCT120,0.00,VWS V14.01,2014-01-02 14:12:00,
2014-01-02 08:17:00,-15.6,-19.5,30.57,WNW,295,0.0,0.0,82,0.00,,BKN120,0.00,VWS V14.01,2014-01-02 14:17:00,
2014-01-02 08:22:00,-15.5,-19.4,30.57,WNW,294,0.0,0.0,82,0.00,,SCT120,0.00,VWS V14.01,2014-01-02 14:22:00,
2014-01-02 08:27:00,-15.4,-19.3,30.57,WNW,294,0.0,0.0,82,0.00,,SCT120,0.00,VWS V14.01,2014-01-02 14:27:00,
2014-01-02 08:32:00,-15.2,-19.1,30.57,WNW,295,0.0,0.0,82,0.00,,BKN120,0.00,VWS V14.01,2014-01-02 14:32:00,
2014-01-02 08:37:00,-15.0,-19.1,30.57,WNW,302,0.0,1.0,81,0.00,,SCT110,0.00,VWS V14.01,2014-01-02 14:37:00,
2014-01-02 08:42:00,-14.8,-18.9,30.57,NW,307,0.0,1.0,81,0.00,,SCT110,0.00,VWS V14.01,2014-01-02 14:42:00,
2014-01-02 08:47:00,-14.6,-18.7,30.57,NNW,328,0.0,1.0,81,0.00,,SCT110,0.00,VWS V14.01,2014-01-02 14:47:00,
2014-01-02 08:52:00,-14.3,-18.4,30.57,NW,308,0.0,1.0,81,0.00,,SCT110,0.00,VWS V14.01,2014-01-02 14:52:00,
2014-01-02 08:57:00,-14.1,-18.5,30.57,ENE,74,0.0,2.0,80,0.00,,BKN120,0.00,VWS V14.01,2014-01-02 14:57:00,
2014-01-02 09:02:00,-13.7,-18.1,30.57,NNE,22,0.0,1.0,80,0.00,,SCT110,0.00,VWS V14.01,2014-01-02 15:02:00,
2014-01-02 09:07:00,-13.3,-17.7,30.57,NNW,348,1.0,3.0,80,0.00,,SCT110,0.00,VWS V14.01,2014-01-02 15:07:00,
2014-01-02 09:12:00,-13.0,-17.6,30.58,North,360,0.0,3.0,79,0.00,,SCT110,0.00,VWS V14.01,2014-01-02 15:12:00,
2014-01-02 09:16:00,-12.8,-17.7,30.58,WNW,298,0.0,3.0,78,0.00,,BKN120,0.00,VWS V14.01,2014-01-02 15:16:00,
2014-01-02 09:21:00,-12.6,-17.5,30.58,NNW,332,2.0,4.0,78,0.00,,SCT110,0.00,VWS V14.01,2014-01-02 15:21:00,
2014-01-02 09:26:00,-12.4,-17.5,30.58,NNW,340,0.0,4.0,77,0.00,,SCT110,0.00,VWS V14.01,2014-01-02 15:26:00,
2014-01-02 09:31:00,-12.0,-17.2,30.58,NNE,33,0.0,2.0,77,0.00,,SCT110,0.00,VWS V14.01,2014-01-02 15:31:00,
2014-01-02 09:36:00,-11.7,-17.1,30.58,NE,56,0.0,2.0,76,0.00,,CLR,0.00,VWS V14.01,2014-01-02 15:36:00,
2014-01-02 09:41:00,-11.5,-17.2,30.59,NE,56,0.0,2.0,75,0.00,,CLR,0.00,VWS V14.01,2014-01-02 15:41:00,
2014-01-02 09:46:00,-11.5,-17.2,30.59,NE,49,2.0,2.0,75,0.00,,CLR,0.00,VWS V14.01,2014-01-02 15:46:00,
2014-01-02 09:51:00,-11.3,-17.0,30.59,NE,49,0.0,2.0,75,0.00,,SCT100,0.00,VWS V14.01,2014-01-02 15:51:00,
2014-01-02 09:56:00,-10.9,-16.9,30.59,NE,54,1.0,3.0,74,0.00,,SCT110,0.00,VWS V14.01,2014-01-02 15:56:00,
2014-01-02 10:01:00,-10.5,-16.5,30.59,NE,56,0.0,3.0,74,0.00,,SCT100,0.00,VWS V14.01,2014-01-02 16:01:00,
2014-01-02 10:06:00,-10.3,-16.5,30.59,NE,56,2.0,3.0,73,0.00,,SCT100,0.00,VWS V14.01,2014-01-02 16:06:00,
2014-01-02 10:11:00,-10.4,-16.9,30.59,NE,51,1.0,4.0,72,0.00,,SCT100,0.00,VWS V14.01,2014-01-02 16:11:00,
2014-01-02 10:16:00,-10.3,-17.1,30.59,NE,51,1.0,4.0,71,0.00,,SCT110,0.00,VWS V14.01,2014-01-02 16:16:00,
2014-01-02 10:21:00,-10.2,-17.0,30.60,NE,51,0.0,4.0,71,0.00,,SCT100,0.00,VWS V14.01,2014-01-02 16:21:00,
2014-01-02 10:26:00,-9.9,-16.7,30.59,NE,53,1.0,4.0,71,0.00,,SCT100,0.00,VWS V14.01,2014-01-02 16:26:00,
2014-01-02 10:31:00,-9.8,-16.9,30.60,NE,56,1.0,2.0,70,0.00,,SCT100,0.00,VWS V14.01,2014-01-02 16:31:00,
2014-01-02 10:36:00,-9.5,-16.6,30.60,NE,53,1.0,2.0,70,0.00,,CLR,0.00,VWS V14.01,2014-01-02 16:36:00,
2014-01-02 10:41:00,-9.3,-16.4,30.59,ENE,58,1.0,2.0,70,0.00,,CLR,0.00,VWS V14.01,2014-01-02 16:41:00,
2014-01-02 10:46:00,-9.1,-16.5,30.60,NE,56,0.0,2.0,69,0.00,,CLR,0.00,VWS V14.01,2014-01-02 16:46:00,
2014-01-02 10:51:00,-8.6,-15.7,30.60,NE,56,0.0,2.0,70,0.00,,CLR,0.00,VWS V14.01,2014-01-02 16:51:00,
2014-01-02 10:56:00,-8.0,-15.4,30.60,WNW,294,2.0,2.0,69,0.00,,CLR,0.00,VWS V14.01,2014-01-02 16:56:00,
2014-01-02 11:01:00,-8.0,-15.7,30.60,WNW,288,1.0,3.0,68,0.00,,CLR,0.00,VWS V14.01,2014-01-02 17:01:00,
2014-01-02 11:07:00,-7.6,-15.3,30.59,NNE,25,3.0,3.0,68,0.00,,CLR,0.00,VWS V14.01,2014-01-02 17:07:00,
2014-01-02 11:12:00,-7.3,-15.3,30.59,WSW,252,0.0,3.0,67,0.00,,CLR,0.00,VWS V14.01,2014-01-02 17:12:00,
2014-01-02 11:17:00,-6.9,-15.0,30.59,NE,47,1.0,3.0,67,0.00,,CLR,0.00,VWS V14.01,2014-01-02 17:17:00,
2014-01-02 11:22:00,-6.7,-15.1,30.59,NNW,338,2.0,4.0,66,0.00,,CLR,0.00,VWS V14.01,2014-01-02 17:22:00,
2014-01-02 11:27:00,-6.2,-14.6,30.59,West,273,0.0,0.0,66,0.00,,CLR,0.00,VWS V14.01,2014-01-02 17:27:00,
2014-01-02 11:32:00,-5.7,-14.1,30.59,WNW,302,0.0,1.0,66,0.00,,SCT100,0.00,VWS V14.01,2014-01-02 17:32:00,
2014-01-02 11:37:00,-5.5,-14.5,30.59,NNW,335,2.0,2.0,64,0.00,,SCT100,0.00,VWS V14.01,2014-01-02 17:37:00,
2014-01-02 11:42:00,-5.4,-14.4,30.60,NW,315,0.0,2.0,64,0.00,,SCT100,0.00,VWS V14.01,2014-01-02 17:42:00,
2014-01-02 11:47:00,-5.0,-14.0,30.59,NE,37,1.0,3.0,64,0.00,,SCT100,0.00,VWS V14.01,2014-01-02 17:47:00,
2014-01-02 11:52:00,-4.5,-13.9,30.58,NW,320,0.0,3.0,63,0.00,,SCT110,0.00,VWS V14.01,2014-01-02 17:52:00,
2014-01-02 11:57:00,-4.2,-13.9,30.58,NW,318,0.0,3.0,62,0.00,,CLR,0.00,VWS V14.01,2014-01-02 17:57:00,
2014-01-02 12:02:00,-4.2,-14.2,30.58,NW,306,0.0,2.0,61,0.00,,SCT110,0.00,VWS V14.01,2014-01-02 18:02:00,
2014-01-02 12:07:00,-4.1,-14.1,30.58,NNE,26,0.0,4.0,61,0.00,,SCT110,0.00,VWS V14.01,2014-01-02 18:07:00,
2014-01-02 12:12:00,-3.7,-13.8,30.58,NNW,327,0.0,4.0,61,0.00,,SCT110,0.00,VWS V14.01,2014-01-02 18:12:00,
2014-01-02 12:17:00,-3.4,-13.8,30.58,WNW,300,1.0,4.0,60,0.00,,CLR,0.00,VWS V14.01,2014-01-02 18:17:00,
2014-01-02 12:22:00,-3.4,-14.1,30.58,WNW,288,1.0,4.0,59,0.00,,SCT110,0.00,VWS V14.01,2014-01-02 18:22:00,
2014-01-02 12:27:00,-3.4,-14.1,30.58,WNW,297,1.0,4.0,59,0.00,,SCT110,0.00,VWS V14.01,2014-01-02 18:27:00,
2014-01-02 12:32:00,-3.3,-14.0,30.57,WNW,284,0.0,2.0,59,0.00,,CLR,0.00,VWS V14.01,2014-01-02 18:32:00,
2014-01-02 12:37:00,-3.1,-13.9,30.57,WNW,293,1.0,2.0,59,0.00,,CLR,0.00,VWS V14.01,2014-01-02 18:37:00,
2014-01-02 12:42:00,-3.0,-13.8,30.57,WNW,295,2.0,3.0,59,0.00,,CLR,0.00,VWS V14.01,2014-01-02 18:42:00,
2014-01-02 12:47:00,-2.6,-13.7,30.57,WNW,301,1.0,3.0,58,0.00,,CLR,0.00,VWS V14.01,2014-01-02 18:47:00,
2014-01-02 12:52:00,-2.5,-13.6,30.56,West,274,1.0,3.0,58,0.00,,SCT100,0.00,VWS V14.01,2014-01-02 18:52:00,
2014-01-02 12:57:00,-2.3,-13.8,30.56,West,271,1.0,3.0,57,0.00,,SCT100,0.00,VWS V14.01,2014-01-02 18:57:00,
2014-01-02 13:02:00,-2.1,-13.6,30.56,NW,314,0.0,1.0,57,0.00,,SCT100,0.00,VWS V14.01,2014-01-02 19:02:00,
2014-01-02 13:07:00,-1.8,-13.7,30.57,NNW,328,1.0,4.0,56,0.00,,SCT100,0.00,VWS V14.01,2014-01-02 19:07:00,
2014-01-02 13:12:00,-1.6,-13.8,30.56,North,354,1.0,4.0,55,0.00,,SCT100,0.00,VWS V14.01,2014-01-02 19:12:00,
2014-01-02 13:17:00,-1.3,-13.5,30.56,NW,306,1.0,4.0,55,0.00,,CLR,0.00,VWS V14.01,2014-01-02 19:17:00,
2014-01-02 13:21:00,-0.9,-13.2,30.57,NNW,339,1.0,4.0,55,0.00,,CLR,0.00,VWS V14.01,2014-01-02 19:21:00,
2014-01-02 13:27:00,-0.9,-13.5,30.56,NNW,335,0.0,4.0,54,0.00,,CLR,0.00,VWS V14.01,2014-01-02 19:27:00,
2014-01-02 13:32:00,-0.6,-12.9,30.56,WNW,301,1.0,2.0,55,0.00,,CLR,0.00,VWS V14.01,2014-01-02 19:32:00,
2014-01-02 13:37:00,-0.1,-12.4,30.55,North,1,2.0,2.0,55,0.00,,CLR,0.00,VWS V14.01,2014-01-02 19:37:00,
2014-01-02 13:42:00,-0.1,-12.7,30.55,NW,307,0.0,3.0,54,0.00,,CLR,0.00,VWS V14.01,2014-01-02 19:42:00,
2014-01-02 13:46:00,0.1,-13.1,30.55,NE,43,0.0,3.0,53,0.00,,CLR,0.00,VWS V14.01,2014-01-02 19:46:00,
2014-01-02 13:51:00,-0.3,-13.3,30.55,NE,44,0.0,3.0,53,0.00,,CLR,0.00,VWS V14.01,2014-01-02 19:51:00,
2014-01-02 13:56:00,-0.3,-13.3,30.55,NE,56,0.0,3.0,53,0.00,,CLR,0.00,VWS V14.01,2014-01-02 19:56:00,
2014-01-02 14:01:00,-0.5,-13.5,30.55,West,276,0.0,2.0,53,0.00,,CLR,0.00,VWS V14.01,2014-01-02 20:01:00,
2014-01-02 14:06:00,-0.4,-13.4,30.55,NE,54,1.0,2.0,53,0.00,,CLR,0.00,VWS V14.01,2014-01-02 20:06:00,
2014-01-02 14:11:00,-0.6,-14.0,30.55,ENE,60,0.0,2.0,52,0.00,,CLR,0.00,VWS V14.01,2014-01-02 20:11:00,
2014-01-02 14:16:00,-0.4,-13.4,30.55,ENE,74,1.0,2.0,53,0.00,,CLR,0.00,VWS V14.01,2014-01-02 20:16:00,
2014-01-02 14:21:00,-0.2,-13.6,30.55,ENE,58,1.0,2.0,52,0.00,,CLR,0.00,VWS V14.01,2014-01-02 20:21:00,
2014-01-02 14:26:00,-0.3,-13.7,30.56,NE,48,2.0,3.0,52,0.00,,CLR,0.00,VWS V14.01,2014-01-02 20:26:00,
2014-01-02 14:31:00,-0.1,-13.9,30.55,NE,55,1.0,2.0,51,0.00,,SCT110,0.00,VWS V14.01,2014-01-02 20:31:00,
2014-01-02 14:36:00,-0.1,-13.9,30.56,NE,53,0.0,2.0,51,0.00,,SCT100,0.00,VWS V14.01,2014-01-02 20:36:00,
2014-01-02 14:41:00,0.5,-13.4,30.56,NW,305,0.0,2.0,51,0.00,,SCT100,0.00,VWS V14.01,2014-01-02 20:41:00,
2014-01-02 14:46:00,0.8,-13.1,30.55,NW,308,0.0,2.0,51,0.00,,SCT100,0.00,VWS V14.01,2014-01-02 20:46:00,
2014-01-02 14:51:00,0.9,-13.4,30.55,NW,320,0.0,2.0,50,0.00,,SCT100,0.00,VWS V14.01,2014-01-02 20:51:00,
2014-01-02 14:56:00,1.1,-12.8,30.55,NW,321,0.0,2.0,51,0.00,,SCT110,0.00,VWS V14.01,2014-01-02 20:56:00,
2014-01-02 15:01:00,1.3,-12.6,30.55,NW,311,1.0,1.0,51,0.00,,SCT100,0.00,VWS V14.01,2014-01-02 21:01:00,
2014-01-02 15:06:00,1.4,-12.9,30.55,WNW,290,0.0,1.0,50,0.00,,SCT100,0.00,VWS V14.01,2014-01-02 21:06:00,
2014-01-02 15:11:00,1.1,-13.2,30.55,NE,40,0.0,1.0,50,0.00,,SCT100,0.00,VWS V14.01,2014-01-02 21:11:00,
2014-01-02 15:16:00,1.2,-12.7,30.55,NW,320,0.0,2.0,51,0.00,,SCT110,0.00,VWS V14.01,2014-01-02 21:16:00,
2014-01-02 15:21:00,1.3,-12.6,30.55,NW,316,0.0,2.0,51,0.00,,SCT100,0.00,VWS V14.01,2014-01-02 21:21:00,
2014-01-02 15:26:00,1.4,-12.5,30.55,WNW,291,0.0,2.0,51,0.00,,SCT100,0.00,VWS V14.01,2014-01-02 21:26:00,
2014-01-02 15:31:00,1.1,-13.2,30.55,WNW,291,0.0,1.0,50,0.00,,SCT100,0.00,VWS V14.01,2014-01-02 21:31:00,
2014-01-02 15:36:00,0.6,-13.7,30.55,West,274,0.0,1.0,50,0.00,,SCT100,0.00,VWS V14.01,2014-01-02 21:36:00,
2014-01-02 15:41:00,0.4,-13.8,30.55,WNW,290,0.0,1.0,50,0.00,,SCT100,0.00,VWS V14.01,2014-01-02 21:41:00,
2014-01-02 15:46:00,0.3,-13.5,30.55,WNW,295,0.0,1.0,51,0.00,,SCT100,0.00,VWS V14.01,2014-01-02 21:46:00,
2014-01-02 15:51:00,0.2,-13.6,30.55,WNW,295,0.0,1.0,51,0.00,,SCT100,0.00,VWS V14.01,2014-01-02 21:51:00,
2014-01-02 15:56:00,0.1,-14.2,30.55,WNW,295,0.0,1.0,50,0.00,,SCT100,0.00,VWS V14.01,2014-01-02 21:56:00,
2014-01-02 16:01:00,-0.1,-13.9,30.56,WNW,295,1.0,1.0,51,0.00,,SCT100,0.00,VWS V14.01,2014-01-02 22:01:00,
2014-01-02 16:06:00,-0.3,-14.1,30.56,WNW,290,0.0,1.0,51,0.00,,SCT100,0.00,VWS V14.01,2014-01-02 22:06:00,
2014-01-02 16:11:00,-0.4,-14.2,30.56,West,278,0.0,1.0,51,0.00,,SCT100,0.00,VWS V14.01,2014-01-02 22:11:00,
2014-01-02 16:16:00,-0.3,-14.1,30.56,WNW,295,0.0,2.0,51,0.00,,SCT100,0.00,VWS V14.01,2014-01-02 22:16:00,
2014-01-02 16:21:00,-0.1,-13.9,30.56,WNW,290,0.0,2.0,51,0.00,,SCT100,0.00,VWS V14.01,2014-01-02 22:21:00,
2014-01-02 16:26:00,-0.3,-14.1,30.56,West,277,0.0,2.0,51,0.00,,SCT100,0.00,VWS V14.01,2014-01-02 22:26:00,
2014-01-02 16:31:00,-0.7,-14.5,30.56,West,277,1.0,2.0,51,0.00,,SCT110,0.00,VWS V14.01,2014-01-02 22:31:00,
2014-01-02 16:36:00,-1.2,-14.6,30.55,West,269,1.0,2.0,52,0.00,,SCT110,0.00,VWS V14.01,2014-01-02 22:36:00,
2014-01-02 16:41:00,-1.6,-14.6,30.55,West,271,0.0,2.0,53,0.00,,SCT110,0.00,VWS V14.01,2014-01-02 22:41:00,
2014-01-02 16:46:00,-2.0,-14.9,30.55,WSW,246,0.0,2.0,53,0.00,,SCT110,0.00,VWS V14.01,2014-01-02 22:46:00,
2014-01-02 16:51:00,-2.4,-14.9,30.55,WSW,246,0.0,2.0,54,0.00,,SCT110,0.00,VWS V14.01,2014-01-02 22:51:00,
2014-01-02 16:56:00,-2.6,-14.8,30.55,WSW,246,0.0,2.0,55,0.00,,SCT110,0.00,VWS V14.01,2014-01-02 22:56:00,
2014-01-02 17:01:00,-3.0,-14.8,30.55,WSW,246,0.0,0.0,56,0.00,,SCT110,0.00,VWS V14.01,2014-01-02 23:01:00,
2014-01-02 17:06:00,-3.4,-15.2,30.55,WSW,246,0.0,0.0,56,0.00,,SCT110,0.00,VWS V14.01,2014-01-02 23:06:00,
2014-01-02 17:11:00,-4.0,-15.7,30.55,WSW,246,0.0,0.0,56,0.00,,SCT110,0.00,VWS V14.01,2014-01-02 23:11:00,
2014-01-02 17:16:00,-4.3,-15.3,30.55,WSW,246,0.0,0.0,58,0.00,,SCT110,0.00,VWS V14.01,2014-01-02 23:16:00,
2014-01-02 17:21:00,-4.6,-15.3,30.55,WSW,246,0.0,0.0,59,0.00,,SCT110,0.00,VWS V14.01,2014-01-02 23:21:00,
2014-01-02 17:26:00,-5.0,-15.6,30.54,WSW,246,0.0,0.0,59,0.00,,SCT110,0.00,VWS V14.01,2014-01-02 23:26:00,
2014-01-02 17:31:00,-5.1,-15.1,30.55,WSW,246,0.0,0.0,61,0.00,,SCT110,0.00,VWS V14.01,2014-01-02 23:31:00,
2014-01-02 17:36:00,-5.1,-15.1,30.55,WSW,246,0.0,0.0,61,0.00,,BKN120,0.00,VWS V14.01,2014-01-02 23:36:00,
2014-01-02 17:41:00,-5.5,-15.5,30.55,WSW,246,0.0,0.0,61,0.00,,BKN120,0.00,VWS V14.01,2014-01-02 23:41:00,
2014-01-02 17:46:00,-5.9,-15.9,30.55,WSW,253,0.0,1.0,61,0.00,,BKN120,0.00,VWS V14.01,2014-01-02 23:46:00,
2014-01-02 17:51:00,-6.1,-15.7,30.55,WSW,256,0.0,1.0,62,0.00,,BKN120,0.00,VWS V14.01,2014-01-02 23:51:00,
2014-01-02 17:56:00,-6.3,-15.6,30.54,WSW,256,0.0,1.0,63,0.00,,SCT110,0.00,VWS V14.01,2014-01-02 23:56:00,
2014-01-02 18:01:00,-6.4,-15.7,30.54,WSW,255,0.0,1.0,63,0.00,,BKN120,0.00,VWS V14.01,2014-01-03 00:01:00,
2014-01-02 18:06:00,-6.3,-15.3,30.55,WSW,256,0.0,1.0,64,0.00,,BKN120,0.00,VWS V14.01,2014-01-03 00:06:00,
2014-01-02 18:11:00,-6.5,-15.8,30.55,West,274,1.0,1.0,63,0.00,,BKN120,0.00,VWS V14.01,2014-01-03 00:11:00,
2014-01-02 18:16:00,-6.8,-15.8,30.55,West,274,1.0,1.0,64,0.00,,BKN120,0.00,VWS V14.01,2014-01-03 00:16:00,
2014-01-02 18:21:00,-7.2,-16.1,30.55,West,274,1.0,1.0,64,0.00,,BKN120,0.00,VWS V14.01,2014-01-03 00:21:00,
2014-01-02 18:26:00,-7.3,-15.9,30.55,WSW,258,0.0,2.0,65,0.00,,BKN120,0.00,VWS V14.01,2014-01-03 00:26:00,
2014-01-02 18:31:00,-7.6,-15.9,30.55,West,263,1.0,1.0,66,0.00,,BKN120,0.00,VWS V14.01,2014-01-03 00:31:00,
2014-01-02 18:36:00,-7.7,-16.0,30.55,WSW,243,0.0,1.0,66,0.00,,BKN120,0.00,VWS V14.01,2014-01-03 00:36:00,
2014-01-02 18:41:00,-8.0,-16.3,30.54,West,267,0.0,1.0,66,0.00,,BKN120,0.00,VWS V14.01,2014-01-03 00:41:00,
2014-01-02 18:46:00,-8.1,-16.1,30.54,West,267,0.0,1.0,67,0.00,,BKN120,0.00,VWS V14.01,2014-01-03 00:46:00,
2014-01-02 18:51:00,-8.3,-16.6,30.54,West,267,0.0,1.0,66,0.00,,BKN120,0.00,VWS V14.01,2014-01-03 00:51:00,
2014-01-02 18:56:00,-8.2,-15.9,30.54,West,267,0.0,1.0,68,0.00,,BKN120,0.00,VWS V14.01,2014-01-03 00:56:00,
2014-01-02 19:01:00,-8.3,-16.3,30.54,West,267,0.0,0.0,67,0.00,,BKN120,0.00,VWS V14.01,2014-01-03 01:01:00,
2014-01-02 19:06:00,-8.4,-16.1,30.53,West,266,0.0,0.0,68,0.00,,BKN120,0.00,VWS V14.01,2014-01-03 01:06:00,
2014-01-02 19:11:00,-8.3,-16.0,30.53,West,267,0.0,0.0,68,0.00,,BKN120,0.00,VWS V14.01,2014-01-03 01:11:00,
2014-01-02 19:16:00,-8.5,-16.2,30.53,West,267,0.0,0.0,68,0.00,,BKN120,0.00,VWS V14.01,2014-01-03 01:16:00,
2014-01-02 19:21:00,-8.6,-16.3,30.53,West,267,0.0,0.0,68,0.00,,BKN120,0.00,VWS V14.01,2014-01-03 01:21:00,
2014-01-02 19:26:00,-8.6,-16.0,30.53,West,267,0.0,0.0,69,0.00,,BKN120,0.00,VWS V14.01,2014-01-03 01:26:00,
2014-01-02 19:31:00,-8.6,-16.0,30.53,West,266,0.0,0.0,69,0.00,,BKN120,0.00,VWS V14.01,2014-01-03 01:31:00,
2014-01-02 19:36:00,-8.6,-16.0,30.53,West,267,0.0,0.0,69,0.00,,SCT120,0.00,VWS V14.01,2014-01-03 01:36:00,
2014-01-02 19:41:00,-8.7,-16.1,30.52,West,267,0.0,0.0,69,0.00,,SCT120,0.00,VWS V14.01,2014-01-03 01:41:00,
2014-01-02 19:46:00,-9.4,-17.1,30.53,WSW,256,0.0,1.0,68,0.00,,SCT120,0.00,VWS V14.01,2014-01-03 01:46:00,
2014-01-02 19:51:00,-10.1,-16.9,30.52,West,264,0.0,2.0,71,0.00,,BKN120,0.00,VWS V14.01,2014-01-03 01:51:00,
2014-01-02 19:56:00,-10.6,-17.4,30.53,WSW,252,1.0,2.0,71,0.00,,BKN120,0.00,VWS V14.01,2014-01-03 01:56:00,
2014-01-02 20:01:00,-10.7,-17.2,30.53,WNW,283,1.0,1.0,72,0.00,,BKN120,0.00,VWS V14.01,2014-01-03 02:01:00,
2014-01-02 20:06:00,-10.8,-17.3,30.53,West,270,1.0,2.0,72,0.00,,BKN120,0.00,VWS V14.01,2014-01-03 02:06:00,
2014-01-02 20:11:00,-10.6,-16.8,30.53,West,263,1.0,2.0,73,0.00,,BKN120,0.00,VWS V14.01,2014-01-03 02:11:00,
2014-01-02 20:16:00,-10.3,-16.5,30.53,West,264,1.0,2.0,73,0.00,,BKN110,0.00,VWS V14.01,2014-01-03 02:16:00,
2014-01-02 20:21:00,-10.3,-16.8,30.53,WSW,250,1.0,2.0,72,0.00,,BKN120,0.00,VWS V14.01,2014-01-03 02:21:00,
2014-01-02 20:26:00,-10.5,-17.0,30.52,WSW,249,0.0,2.0,72,0.00,,BKN120,0.00,VWS V14.01,2014-01-03 02:26:00,
2014-01-02 20:31:00,-10.5,-17.0,30.52,WSW,251,0.0,1.0,72,0.00,,BKN120,0.00,VWS V14.01,2014-01-03 02:31:00,
2014-01-02 20:36:00,-10.3,-16.8,30.52,WSW,250,0.0,1.0,72,0.00,,SCT120,0.00,VWS V14.01,2014-01-03 02:36:00,
2014-01-02 20:41:00,-10.4,-16.9,30.52,SW,233,0.0,1.0,72,0.00,,SCT120,0.00,VWS V14.01,2014-01-03 02:41:00,
2014-01-02 20:46:00,-10.2,-16.5,30.52,SW,232,1.0,1.0,73,0.00,,SCT120,0.00,VWS V14.01,2014-01-03 02:46:00,
2014-01-02 20:51:00,-10.0,-16.3,30.52,SW,233,0.0,1.0,73,0.00,,BKN120,0.00,VWS V14.01,2014-01-03 02:51:00,
2014-01-02 20:56:00,-10.1,-16.6,30.51,SW,232,0.0,1.0,72,0.00,,BKN120,0.00,VWS V14.01,2014-01-03 02:56:00,
2014-01-02 21:01:00,-10.2,-16.7,30.51,SW,232,0.0,0.0,72,0.00,,BKN120,0.00,VWS V14.01,2014-01-03 03:01:00,
2014-01-02 21:06:00,-10.6,-17.1,30.50,SW,232,0.0,0.0,72,0.00,,BKN120,0.00,VWS V14.01,2014-01-03 03:06:00,
2014-01-02 21:11:00,-11.0,-17.5,30.50,SW,232,0.0,0.0,72,0.00,,BKN120,0.00,VWS V14.01,2014-01-03 03:11:00,
2014-01-02 21:16:00,-10.9,-17.1,30.50,SW,233,0.0,0.0,73,0.00,,BKN120,0.00,VWS V14.01,2014-01-03 03:16:00,
2014-01-02 21:21:00,-11.1,-17.3,30.50,SW,232,0.0,0.0,73,0.00,,BKN120,0.00,VWS V14.01,2014-01-03 03:21:00,
2014-01-02 21:26:00,-11.0,-17.0,30.50,SW,233,0.0,0.0,74,0.00,,BKN120,0.00,VWS V14.01,2014-01-03 03:26:00,
2014-01-02 21:31:00,-11.1,-17.1,30.50,SW,232,0.0,0.0,74,0.00,,BKN120,0.00,VWS V14.01,2014-01-03 03:31:00,
2014-01-02 21:36:00,-11.3,-17.3,30.50,SW,232,0.0,0.0,74,0.00,,SCT110,0.00,VWS V14.01,2014-01-03 03:36:00,
2014-01-02 21:41:00,-11.5,-17.5,30.50,WSW,245,0.0,0.0,74,0.00,,SCT110,0.00,VWS V14.01,2014-01-03 03:41:00,
2014-01-02 21:46:00,-12.0,-17.9,30.50,West,274,0.0,1.0,74,0.00,,SCT110,0.00,VWS V14.01,2014-01-03 03:46:00,
2014-01-02 21:51:00,-12.1,-17.8,30.50,West,273,0.0,1.0,75,0.00,,BKN110,0.00,VWS V14.01,2014-01-03 03:51:00,
2014-01-02 21:56:00,-12.2,-17.9,30.50,West,273,0.0,1.0,75,0.00,,SCT120,0.00,VWS V14.01,2014-01-03 03:56:00,
2014-01-02 22:01:00,-12.3,-18.0,30.49,West,273,0.0,0.0,75,0.00,,BKN110,0.00,VWS V14.01,2014-01-03 04:01:00,
2014-01-02 22:06:00,-12.6,-18.3,30.49,West,273,0.0,0.0,75,0.00,,BKN110,0.00,VWS V14.01,2014-01-03 04:06:00,
2014-01-02 22:11:00,-12.6,-18.0,30.49,SSE,165,0.0,0.0,76,0.00,,BKN110,0.00,VWS V14.01,2014-01-03 04:11:00,
2014-01-02 22:16:00,-12.5,-17.9,30.48,SSE,165,0.0,0.0,76,0.00,,BKN110,0.00,VWS V14.01,2014-01-03 04:16:00,
2014-01-02 22:21:00,-12.5,-17.9,30.48,SSE,165,0.0,0.0,76,0.00,,BKN110,0.00,VWS V14.01,2014-01-03 04:21:00,
2014-01-02 22:26:00,-12.4,-17.5,30.48,SSE,165,0.0,0.0,77,0.00,,BKN110,0.00,VWS V14.01,2014-01-03 04:26:00,
2014-01-02 22:31:00,-12.2,-17.4,30.47,SSE,165,0.0,0.0,77,0.00,,BKN110,0.00,VWS V14.01,2014-01-03 04:31:00,
2014-01-02 22:36:00,-12.3,-17.5,30.47,SSE,165,0.0,0.0,77,0.00,,BKN120,0.00,VWS V14.01,2014-01-03 04:36:00,
2014-01-02 22:41:00,-12.1,-17.3,30.47,SSE,162,0.0,0.0,77,0.00,,BKN120,0.00,VWS V14.01,2014-01-03 04:41:00,
2014-01-02 22:46:00,-12.0,-17.2,30.47,SSE,162,0.0,0.0,77,0.00,,BKN120,0.00,VWS V14.01,2014-01-03 04:46:00,
2014-01-02 22:51:00,-12.3,-17.5,30.47,SSE,162,0.0,0.0,77,0.00,,SCT120,0.00,VWS V14.01,2014-01-03 04:51:00,
2014-01-02 22:56:00,-12.5,-17.6,30.47,SSE,162,0.0,0.0,77,0.00,,SCT120,0.00,VWS V14.01,2014-01-03 04:56:00,
2014-01-02 23:01:00,-12.8,-17.9,30.46,SSE,162,0.0,0.0,77,0.00,,SCT120,0.00,VWS V14.01,2014-01-03 05:01:00,
2014-01-02 23:06:00,-13.0,-18.1,30.46,SSE,162,0.0,1.0,77,0.00,,SCT120,0.00,VWS V14.01,2014-01-03 05:06:00,
2014-01-02 23:11:00,-13.1,-18.2,30.45,South,169,0.0,1.0,77,0.00,,SCT120,0.00,VWS V14.01,2014-01-03 05:11:00,
2014-01-02 23:16:00,-13.3,-18.4,30.45,SSE,167,0.0,1.0,77,0.00,,SCT110,0.00,VWS V14.01,2014-01-03 05:16:00,
2014-01-02 23:21:00,-13.3,-18.2,30.44,SSE,164,0.0,1.0,78,0.00,,SCT110,0.00,VWS V14.01,2014-01-03 05:21:00,
2014-01-02 23:26:00,-13.2,-18.1,30.44,SSE,160,0.0,1.0,78,0.00,,SCT110,0.00,VWS V14.01,2014-01-03 05:26:00,
2014-01-02 23:31:00,-13.2,-18.1,30.44,SSE,160,0.0,1.0,78,0.00,,SCT120,0.00,VWS V14.01,2014-01-03 05:31:00,
2014-01-02 23:36:00,-13.3,-18.2,30.44,SSE,161,0.0,1.0,78,0.00,,SCT120,0.00,VWS V14.01,2014-01-03 05:36:00,
2014-01-02 23:41:00,-13.4,-18.3,30.44,SSW,208,1.0,1.0,78,0.00,,SCT120,0.00,VWS V14.01,2014-01-03 05:41:00,
2014-01-02 23:46:00,-13.4,-18.3,30.44,SSW,205,0.0,1.0,78,0.00,,SCT120,0.00,VWS V14.01,2014-01-03 05:46:00,
2014-01-02 23:51:00,-13.6,-18.5,30.44,SW,221,0.0,1.0,78,0.00,,SCT120,0.00,VWS V14.01,2014-01-03 05:51:00,
2014-01-02 23:56:00,-13.7,-18.3,30.44,SW,225,0.0,1.0,79,0.00,,SCT120,0.00,VWS V14.01,2014-01-03 05:56:00,